Back to catalog

METEOSAT 5

MOP 2

AliveWeatherGEO
NORAD 21140·PAYLOAD·🇪🇺 EU

Launched Mar 2, 1991 from Guiana Space Centre

Loading…

TLE

FreshSource: Space-Track

Epoch: Sep 13, 2026, 23:58 UTC

1 21140U 91015B   26256.99929159 -.00000141  00000-0  00000-0 0  9995
2 21140  14.6267 349.3475 0011369 263.1208 119.8871  0.98452290131080

Track METEOSAT 5 in real time with AllMySat

Download on the App Store